This is the latest recevied weather packets stored in our database for station/object M0TJX-1. If no packets are shown the sender has not sent any weather packets the latest 10 day(s).
| Time | Temp. | Humidity | Pressure | Rain* | Wind** | Luminosity | Snow |
|---|---|---|---|---|---|---|---|
| 1787822723 | 19.44° C | 96% | 1006.9 hPa | 0 mm | - | - | - |
| 1787821823 | 18.89° C | 96% | 1007.1 hPa | 0 mm | - | - | - |
| 1787820923 | 18.89° C | 97% | 1007.1 hPa | 0 mm | - | - | - |
| 1787819123 | 18.33° C | 96% | 1007.1 hPa | 0 mm | - | - | - |
| 1787818223 | 18.33° C | 97% | 1007 hPa | 0.25 mm | - | - | - |
| 1787817323 | 18.33° C | 96% | 1007 hPa | 0.25 mm | - | - | - |
| 1787816423 | 17.78° C | 97% | 1007.1 hPa | 0.25 mm | - | - | - |
| 1787815523 | 17.78° C | 97% | 1007.4 hPa | 0.25 mm | - | - | - |
| 1787814623 | 17.78° C | 97% | 1007.3 hPa | 0 mm | - | - | - |
| 1787813723 | 17.78° C | 96% | 1007.2 hPa | 0 mm | - | - | - |
| 1787812823 | 17.22° C | 96% | 1007.2 hPa | 0 mm | - | - | - |
| 1787811923 | 17.22° C | 96% | 1007.6 hPa | 1.02 mm | - | - | - |
| 1787811023 | 17.22° C | 95% | 1007.7 hPa | 1.27 mm | - | - | - |
| 1787810123 | 17.22° C | 95% | 1007.5 hPa | 2.29 mm | - | - | - |
| 1787809223 | 17.22° C | 95% | 1007.5 hPa | 3.05 mm | - | - | - |
| 1787808323 | 17.22° C | 95% | 1008 hPa | 3.56 mm | - | - | - |
| 1787807423 | 17.22° C | 94% | 1007.8 hPa | 8.38 mm | - | - | - |
| 1787806523 | 17.78° C | 93% | 1008 hPa | 7.62 mm | - | - | - |
| 1787805623 | 17.78° C | 92% | 1007.8 hPa | 6.86 mm | - | - | - |
| 1787804723 | 18.33° C | 90% | 1007.8 hPa | 5.33 mm | - | - | - |
| 1787803823 | 18.89° C | 88% | 1007.9 hPa | 0 mm | - | - | - |
| 1787802923 | 18.89° C | 87% | 1007.3 hPa | 0 mm | - | - | - |
| 1787802023 | 18.89° C | 86% | 1007.3 hPa | 0 mm | - | - | - |
| 1787801123 | 18.89° C | 85% | 1007.6 hPa | 0 mm | - | - | - |
| 1787800223 | 18.89° C | 85% | 1007.8 hPa | 0 mm | - | - | - |
* Rain latest hour (hover to see other rain measurements)
** Current wind speed in m/s (hover to see current wind gust speed)